Location: French River
(46.0362°N, 80.5373°W)
Time: 06:11:18
(UTC-05:00)

ISS - Visible Passes

Search period start: 23 November 2017 00:00
Search period end: 03 December 2017 00:00
Orbit: 402 x 407 km, 51.6° (Epoch: 23 November)

Date Brightness Start Highest point End Pass type
(mag) Time Alt. Az. Time Alt. Az. Time Alt. Az.
26 Nov -1.5 18:34:45 10° S 18:35:51 15° SSE 18:35:51 15° SSE visible
27 Nov -1.4 17:44:22 10° SE 17:45:02 10° SE 17:45:41 10° ESE visible
27 Nov -1.1 19:17:42 10° SW 19:18:37 17° SW 19:18:37 17° SW visible
28 Nov -3.1 18:25:36 10° SSW 18:28:36 38° SSE 18:28:36 38° SSE visible
29 Nov -2.2 17:33:51 10° SSW 17:36:28 22° SE 17:38:30 13° E visible
29 Nov -1.7 19:09:26 10° WSW 19:11:10 28° W 19:11:10 28° W visible
30 Nov -3.9 18:17:03 10° WSW 18:20:19 79° SSE 18:21:00 52° ENE visible
01 Dec -3.2 17:24:50 10° SW 17:28:00 46° SE 17:30:46 13° ENE visible
01 Dec -2.0 19:01:23 10° W 19:03:25 30° WNW 19:03:25 30° WNW visible
02 Dec -3.5 18:08:47 10° WSW 18:12:02 57° NNW 18:13:09 35° NE visible
